STARLINK-1478 (45755 NORAD) Tracking and Keplerian Element Data

This shows tracking and keplerian element data for the satellite.

Feedback or suggestion? Click here.




ElementValue
Catalog45755
NameSTARLINK-1478
Epoch Orbit923
Epoch Day215.91667824
Epoch Year2020
RAAN48.567
Inclination52.9999
Eccentricity0.0001919
Argument of Perigee44.3265
Mean Anonmoly199.4069
Mean Motion15.62753284
Decay Rate0.00041391
L11 45755U 20038AB 20215.91667824 .00041391 00000-0 45554-3 0 9996
L22 45755 52.9999 48.5670 0001919 44.3265 199.4069 15.62753284 9230

Live tracking and technical data element details for STARLINK-1478 (NORAD 45755). STARLINK-1478 can be tracked NOW for your location showing map with azimuth and elevation plus other details from your city location.

Track the satellite on the map from your city or location and see movement details for azimuth, elevation, latitude, longitude, range, height, and movement on the map or in text.







IsCatalogInMostPopularTable: catalog: 45755, numindb: 14
Update: records affected: 1



GetName: 45755 STARLINK-1478

Hit Count: updated at: Mon, 03 Aug 2020 17:35:40 GMT